Regional Weather Roundup
Issued by NWS Upton, NY

Current Version | Previous Version | Graphics & Text | Print | Product List | Glossary Off
Versions: 1 2 3 4 5 6 7 8 9 10 11 12 13 14 15 16 17 18 19 20 21 22 23 24 25 26 27 28 29 30 31 32 33 34 35 36 37 38 39 40 41 42 43 44 45 46 47 48 49 50

000
ASUS41 KOKX 020404
RWROKX

REGIONAL WEATHER ROUNDUP
NATIONAL WEATHER SERVICE NEW YORK NY
1200 AM EDT WED SEP 02 2015

NOTE: "FAIR" INDICATES FEW OR NO CLOUDS BELOW 12,000 FEET WITH NO
SIGNIFICANT WEATHER AND/OR OBSTRUCTIONS TO VISIBILITY.

NYZ071-072-176-178-NJZ106-104-020500-
NEW YORK CITY METRO AREA


CITY           SKY/WX    TMP DP  RH WIND       PRES   REMARKS
CENTRAL PARK   CLEAR     78  62  57 CALM      30.08S
LAGUARDIA APRT CLEAR     77  67  71 S6        30.05S
KENNEDY INTL   CLEAR     74  69  85 S3        30.06S
NEWARK/LIBERTY CLEAR     76  67  73 CALM      30.05S
BRNX BOT. GARD   N/A     72  64  78 CALM      30.07R
TETERBORO      CLEAR     75  64  68 CALM      30.04S
$$

NYZ177-179-078>081-020500-
LONG ISLAND NEW YORK

CITY           SKY/WX    TMP DP  RH WIND       PRES   REMARKS
FARMINGDALE    CLEAR     73  69  87 CALM      30.06S
ISLIP          CLEAR     72  68  87 SW5       30.05R
SHIRLEY        CLEAR     68  66  93 CALM      30.07R FOG
WESTHAMPTON    FOG       61  59  93 CALM      30.08S VSB 1/4
MONTAUK POINT    N/A     71  68  90 CALM      30.07S
$$

NYZ052-065-067-020500-
HUDSON VALLEY

CITY           SKY/WX    TMP DP  RH WIND       PRES   REMARKS
WHITE PLAINS   CLEAR     69  64  84 CALM      30.06S
NEWBURGH       CLEAR     68  63  83 CALM      30.07R
MONTGOMERY     CLEAR     64  62  93 CALM      30.06R
POUGHKEEPSIE   CLEAR     66  61  84 CALM      30.04S
ALBANY         CLEAR     70  63  78 CALM      30.04S
$$

NJZ001-105-106-008-010-013-015-019>022-104-020500-
NEW JERSEY

CITY           SKY/WX    TMP DP  RH WIND       PRES   REMARKS
NEWARK/LIBERTY CLEAR     76  67  73 CALM      30.05S
TETERBORO      CLEAR     75  64  68 CALM      30.04S
CALDWELL       CLEAR     71  64  78 CALM      30.07R
MORRISTOWN     CLEAR     63  59  88 CALM      30.06S FOG
SOMERVILLE     CLEAR     68  64  87 CALM      30.05R
SUSSEX         CLEAR     64  61  90 CALM      30.07S
ANDOVER          N/A     65  63  93 CALM      30.08S
TRENTON        PTCLDY    74  66  76 CALM      30.06S
MILLVILLE      CLEAR     72  71  97 CALM      30.05S FOG
ATLANTIC CITY  CLEAR     74  72  93 CALM      30.05S FOG
WRIGHTSTOWN    CLEAR     70  70 100 E2        30.04S
TOMS RIVER     CLEAR     66  64  94 CALM      30.07R
BELMAR         CLEAR     72  64  78 CALM      30.06S
$$

PAZ047>061-062-071-020500-
EASTERN PENNSYLVANIA

CITY           SKY/WX    TMP DP  RH WIND       PRES   REMARKS
PHILADELPHIA   PTCLDY    76  70  82 SE3       30.05F
ALLENTOWN      CLEAR     71  65  81 CALM      30.06S
SCRANTON       CLEAR     69  61  75 E7        30.08S
$$

CTZ002-004>006-009-010-012-RIZ004-006-007-MAZ004-011-015-020500-
SOUTHERN NEW ENGLAND
 IN CT

CITY           SKY/WX    TMP DP  RH WIND       PRES   REMARKS
BRADLEY INTL   CLEAR     69  63  81 S5        30.04S
HARTFORD       CLEAR     70  66  87 CALM      30.04S
DANBURY        CLEAR     66  62  87 CALM      30.08S
WTRBRY/OXFORD  CLEAR     64  57  77 CALM      30.09S
BRIDGEPORT     CLEAR     76  67  73 SW3       30.06R
MERIDEN        CLEAR     66  62  87 CALM      30.06R
NEW HAVEN      CLEAR     72  68  87 S3        30.06S
CHESTER        NOT AVBL
GROTON         CLEAR     65  65 100 CALM      30.06R FOG
WILLIMANTIC    CLEAR     65  61  87 CALM      30.06S

 IN RI

CITY           SKY/WX    TMP DP  RH WIND       PRES   REMARKS
PROVIDENCE     CLEAR     67  64  90 SW3       30.06S
BLOCK ISLAND   CLEAR     68  68 100 S6        30.06S
WESTERLY       CLEAR     64  61  90 CALM      30.07R

 IN MA

CITY           SKY/WX    TMP DP  RH WIND       PRES   REMARKS
BOSTON         CLEAR     71  63  75 SW6       30.04S
WORCESTER      CLEAR     65  60  84 W9        30.08S
WESTFIELD      CLEAR     63  61  93 S3        30.05S
PROVINCETOWN     N/A     66  59  77 S7        30.06S
NANTUCKET      CLEAR     63  61  93 S6        30.06F
$$

ANZ330-335-338-340-345-350-353-355-020500-
COASTAL MARINE OBSERVATIONS


STATION/POSITION TIME  SKY/WX   TEMP    WIND        PRES    VSBY  WAVE
                                AIR SEA DIR/SP/G                  HT/PER
                 (UTC)          (F)     (DEG/KT/KT) (MB)    (MI)  (FT/S)
NY HARB ENTRANCE 0250            76 77  190/  6/  6 1017.4          2/ 8
4S FIRE IS       NOT AVBL
20S FIRE ISLAND  0250            74 75  190/  6/  6 1017.5          2/ 8
GREAT SOUTH BAY  0300            75 79  220/  6/  8   N/A
23SW MTP         0350            73 72  190/  4/  6 1017.5          2/ 8
HUDSON CANYON    NOT AVBL
KINGS POINT      0300            75 75  190/  4/  6 1017.0
EXECUTION ROCKS  0300            75     170/  6/  8   N/A
CENTRAL LI SOUND NOT AVBL
EASTERN LI SOUND 0300            71 71  180/  4/  4   N/A
ROBBINS REEF     0300            76     210/  2/  3 1016.7
$$


>>>>>>>>>>>>>>>>>>>>>>>>>>>> KEY <<<<<<<<<<<<<<<<<<<<<<<<<<<
>                                                          <
>     SKY/WX - SKY CONDITION/PRESENT WEATHER               <
>     TMP    - TEMPERATURE IN FAHRENHEIT                   <
>     DP     - DEWPOINT IN FAHRENHEIT                      <
>     RH     - RELATIVE HUMIDITY IN PERCENT                <
>     WIND   - DIRECTION AND SPEED IN MPH                  <
>     PRES   - MEAN SEA LEVEL PRESSURE IN INCHES OF HG     <
>     WCI    - WIND CHILL INDEX                            <
>     VSB    - VISIBILITY IN MILES                         <
>     HX     - HEAT INDEX                                  <
>     TC     - TEMPERATURE IN CELSIUS                      <
>     VRB    - VARIABLE WIND DIRECTION                     <
>                                                          <
>>>>>>>>>>>>>>>>>>>>>>>>>>>> KEY <<<<<<<<<<<<<<<<<<<<<<<<<<<




USA.gov is the U.S. government's official web portal to all federal, state and local government web resources and services.